Pasco, WA
on Thursday, January 10, 2013

Thursday
Previous Day Next Day
Daily Summary
 ActualAverageRecord
Temperature
Mean Temperature °F 34°F  
Max Temperature 42°F 41°F 60°F (2006)
Min Temperature 26°F 27°F 2°F (1993)
Degree Days
Heating Degree Days 31 31  
Month to date heating degree days 305 317  
Since 1 July heating degree days 2212 2533  
Cooling Degree Days 0 0  
Month to date cooling degree days 0 0  
Year to date cooling degree days 0 0  
Moisture
Dew Point 25°F   
Average Humidity 67    
Maximum Humidity 85    
Minimum Humidity 49    
Precipitation
Precipitation 0.00 in in 0.43 in (1959)
Month to date precipitation 0.27  
Year to date precipitation 0.27  
Snow
Snow 0.00 in in in ()
Snow Depth 0.00 in   
Wind
Wind Speed 4 mph   
Max Wind Speed 17 mph   
Max Gust Speed 22 mph   
Visibility 10 miles   
Events     

Key: T is trace of precipitation, MM is missing value
Source: NWS Daily Summary
Time(PST)TemperatureDew PointHumidity Pressure Visibility Wind DirectionWind SpeedGust SpeedPrecipitationEvents Conditions
12:53 AM 36.0°F 28.0°F 73% 29.87 in 10.0 miles WSW 9.2 mph - N/A   Clear
1:53 AM 35.1°F 27.0°F 72% 29.90 in 10.0 miles Calm Calm - N/A   Clear
2:53 AM 34.0°F 26.1°F 73% 29.90 in 10.0 miles Calm Calm - N/A   Clear
3:53 AM 32.0°F 26.1°F 79% 29.90 in 10.0 miles South 5.8 mph - N/A   Clear
4:53 AM 32.0°F 25.0°F 75% 29.91 in 10.0 miles Calm Calm - N/A   Clear
5:53 AM 28.9°F 25.0°F 85% 29.92 in 10.0 miles Calm Calm - N/A   Clear
6:53 AM 28.0°F 25.0°F 88% 29.94 in 10.0 miles Calm Calm - N/A   Mostly Cloudy
7:53 AM 27.0°F 23.0°F 85% 29.96 in 10.0 miles NE 3.5 mph - N/A   Partly Cloudy
8:53 AM 30.0°F 24.1°F 79% 29.98 in 10.0 miles Variable 3.5 mph - N/A   Clear
9:53 AM 33.1°F 27.0°F 78% 29.98 in 10.0 miles SE 5.8 mph - N/A   Overcast
10:53 AM 36.0°F 28.0°F 73% 29.99 in 10.0 miles Calm Calm - N/A   Mostly Cloudy
11:53 AM 39.0°F 26.1°F 60% 29.97 in 10.0 miles West 5.8 mph - N/A   Overcast
12:53 PM 41.0°F 25.0°F 53% 29.96 in 10.0 miles West 6.9 mph - N/A   Overcast
1:53 PM 42.1°F 25.0°F 51% 29.96 in 10.0 miles Calm Calm - N/A   Overcast
2:53 PM 41.0°F 25.0°F 53% 29.97 in 10.0 miles NE 3.5 mph - N/A   Overcast
3:53 PM 39.9°F 26.1°F 58% 29.98 in 10.0 miles NE 6.9 mph - N/A   Mostly Cloudy
4:53 PM 37.0°F 24.1°F 59% 29.99 in 10.0 miles ENE 4.6 mph - N/A   Overcast
5:53 PM 35.1°F 26.1°F 70% 30.00 in 10.0 miles Calm Calm - N/A   Overcast
6:53 PM 35.1°F 21.9°F 59% 30.00 in 10.0 miles Calm Calm - N/A   Overcast
8:53 PM 35.1°F 21.0°F 57% 30.01 in 10.0 miles WNW 4.6 mph - N/A   Overcast
9:53 PM 34.0°F 21.0°F 59% 30.02 in 10.0 miles NW 8.1 mph - N/A   Overcast
10:53 PM 33.1°F 19.0°F 56% 30.03 in 10.0 miles NW 12.7 mph - N/A   Overcast
11:53 PM 30.9°F 19.0°F 61% 30.05 in 10.0 miles WNW 9.2 mph - N/A   Mostly Cloudy
Moon Phase
Jan. 10 Jan. 11 Jan. 18 Jan. 26 Feb. 03
Sunrise:07:37 AM (PST) Moon Rise:06:21 AM (PST)1/10
Sunset:04:31 PM (PST) Moon Set:03:45 PM (PST)1/10

Copyright © 2014 The Weather Underground, Inc.